Regional Weather Roundup
Issued by NWS Wakefield, VA

Home | Current Version | Previous Version | Graphics & Text | Print | Product List | Glossary On
Versions: 1 2 3 4 5 6 7 8 9 10 11 12 13 14 15 16 17 18 19 20 21 22 23 24 25 26 27 28 29 30 31 32 33 34 35 36 37 38 39 40 41 42 43 44 45 46 47 48 49 50
791
ASUS41 KAKQ 241415
RWRAKQ

REGIONAL WEATHER ROUNDUP
NATIONAL WEATHER SERVICE WAKEFIELD VA
1000 AM EDT TUE MAY 24 2016

Note: "fair" indicates few or no clouds below 12,000 feet with no
significant weather and/or obstructions to visibility. * = Denotes
station may not report precipitation (e.g., rain,snow,etc.),
thunder or fog.

VAZ042-051-052>054-056-241500-
NORTHERN VIRGINIA

CITY           SKY/WX    TMP DP  RH WIND       PRES   REMARKS
WASH NATIONAL  FAIR      71  55  56 NW15      30.02R
DULLES         FAIR      70  53  54 NW14      30.03R
FORT BELVOIR   FAIR      71  55  56 NW12      30.01S
QUANTICO       FAIR      71  56  58 NW13      30.03R
FREDERICKSBRG* FAIR      72  57  60 W13       30.03R
STAFFORD*      FAIR      69  58  65 NW13      30.07S
WARRENTON      FAIR      73  53  49 W6        30.03S
CULPEPER*      FAIR      72  60  66 W3        30.05S
MANASSAS*      SUNNY     72  57  60 NW6       30.03R
LEESBURG*      FAIR      72  55  56 NW13G21   30.04R
WINCHESTER     FAIR      70  52  52 W9        30.06S
FRONT ROYAL*   FAIR      68  55  64 CALM      30.06S
LURAY*         FAIR      68  57  68 CALM      30.07F
$$

VAZ048-049-060>072-079>083-241500-
CENTRAL AND SOUTH CENTRAL VIRGINIA

CITY           SKY/WX    TMP DP  RH WIND       PRES   REMARKS
RICHMOND       FAIR      70  55  59 W10       30.04S
CHESTERFIELD*  FAIR      72  50  46 NW6       30.06S
PETERSBURG*    FAIR      72  56  57 W6        30.06S
HANOVER        FAIR      70  57  63 W8        30.05S
TAPPAHANNOCK*  FAIR      71  57  61 SW8       30.03S
QUINTON*       FAIR      69  58  68 W6        30.03S
CHARLOTTSVILLE FAIR      75  53  46 N8        30.06R
GORDONSVILLE*  FAIR      73  56  55 NW8       30.05R
ORANGE*        FAIR      73  55  53 CALM      30.06S
LOUISA*        FAIR      75  61  60 W3        30.05R
BUMPASS*       FAIR      70  59  66 CALM      30.05S
FARMVILLE*     PTSUNNY   70  57  64 SW5       30.07S
CREWE*         FAIR      69  57  65 W3        30.07S
FORT PICKETT*  NOT AVBL
CHASE CITY*    FAIR      65  57  74 W3        30.11R
CLARKSVILLE*   FAIR      66  55  68 W5        30.10R
SOUTH HILL*    FAIR      67  58  72 W7        30.14S
LAWRENCEVILLE* FAIR      67  58  73 W3        30.07S
EMPORIA*       FAIR      68  55  64 SW6       30.07F
$$

VAZ088>098-241500-
SOUTHEAST VIRGINIA

CITY           SKY/WX    TMP DP  RH WIND       PRES   REMARKS
NORFOLK        FAIR      67  56  67 SW9       30.02S
VIRGINIA BEACH FAIR      71  57  61 SW10      30.01F
NORFOLK NAVAL  FAIR      68  57  68 W9        30.04S
WEST POINT*    FAIR      69  57  65 W8        30.05R
SALUDA*        FAIR      69  60  74 W6        30.02R
NEWPORT NEWS   FAIR      68  58  70 W7        30.03S
LANGLEY AFB    MOSUNNY   68  58  71 W12       30.03R
FORT EUSTIS    FAIR      67  59  75 W6        30.02R
WILLIAMSBURG*  FAIR      68  61  77 W8        30.04S
HR EXEC AP*    FAIR      66  61  82 W6        30.06S
FRANKLIN*      FAIR      67  56  67 W6        30.06S
US460-WAKEFLD  FAIR      68  55  63 VRB3      30.05R
$$

VAZ020-022-025-037-045-241500-
WEST CENTRAL AND SOUTHWEST VIRGINIA

CITY           SKY/WX    TMP DP  RH WIND       PRES   REMARKS
STAUNTON*      FAIR      69  58  66 SW5       30.12R
WAYNESBORO*    FAIR      67  53  60 SW5       30.11S
HOT SPRINGS VA FAIR      59  49  70 NW7       30.18S
LYNCHBURG      FAIR      67  55  65 VRB3      30.12R
DANVILLE       FAIR      68  55  63 W7        30.12R
SOUTH BOSTON*  FAIR      68  59  73 W3        30.11S
MARTINSVILLE   FAIR      67  55  63 CALM      30.16S
ROANOKE        FAIR      67  54  63 W9G18     30.15S
BLACKSBURG     FAIR      62  54  73 W6        30.21S
DUBLIN*        FAIR      67  54  62 W6        30.19S
MARION*        FAIR      64  51  63 SW7       30.23F
HILLSVILLE*    FAIR      62  51  69 NW5       30.19S
RICHLANDS*     FAIR      62  34  35 NW3       30.21S
WISE*          FAIR      66  43  42 SW6       30.22R
ABINGDON*      FAIR      66  50  57 CALM      30.19S
$$

MDZ021>025-VAZ099-100-241500-
SOUTHERN MARYLAND AND THE DELMARVA PENINSULA

CITY           SKY/WX    TMP DP  RH WIND       PRES   REMARKS
PATUXENT RIVER MOSUNNY   70  56  61 NW9       29.99R
BAY BRIDGE APT CLOUDY    66  55  68 NW8       29.99R
LEONARDTOWN    NOT AVBL
DOVER          CLOUDY    65  59  80 NW9       29.92R
GEORGETOWN     PTSUNNY   66  55  67 NW6       29.97R
EASTON         PTSUNNY   68  63  83 NW6       30.02R
CAMBRIDGE      MOSUNNY   63  54  72 NW8       29.99R
SALISBURY      SUNNY     69  55  60 NW10      29.97R
OCEAN CITY     MOSUNNY   69  57  65 NW10      29.96R
WALLOPS ISLAND FAIR      70  57  63 W10G18    29.97F
ACCOMACK*      FAIR      70  54  56 W9G17     30.00R
$$

NCZ012>017-030>032-241500-
NORTH CENTRAL AND EASTERN NORTH CAROLINA

CITY           SKY/WX    TMP DP  RH WIND       PRES   REMARKS
ROANOKE RAPIDS FAIR      68  55  64 W7        30.08S
RALEIGH        MOSUNNY   69  57  65 W5        30.12S
ELIZABETH CITY MOSUNNY   67  57  70 SW10      30.05F
AHOSKIE*       SUNNY     66  57  72 CALM      30.07F
EDENTON*       SUNNY    N/A N/A N/A W7        30.07F
CURRITUCK*     SUNNY     68  57  67 SW9       30.05S
KILL DEVIL HLS SUNNY     69  56  63 W6        30.05S
MANTEO         SUNNY     67  57  69 W8        30.07S
CAPE HATTERAS  SUNNY     69  57  65 W10       30.09S
TARBORO*       FAIR      69  57  67 W6        30.10F
GOLDSBORO      NOT AVBL
WASHINGTON     SUNNY     69  56  62 W9        30.10S
GREENVILLE     SUNNY     70  57  64 W8        30.12R
NEW BERN       SUNNY     70  55  59 W10       30.14R
WILMINGTON     SUNNY     70  53  54 W7        30.14S
$$

VAZ048-241500-
ELSEWHERE

CITY           SKY/WX    TMP DP  RH WIND       PRES   REMARKS
HARRISBURG PA  MOSUNNY   71  52  50 NW12      29.98S
BALTIMORE      MOSUNNY   69  54  58 NW8       29.99R
ANNAPOLIS      SUNNY     68  55  63 NW7       29.99R
ANDREWS AFB    FAIR      70  55  58 NW12G17   30.00R
PHILADELPHIA   PTSUNNY   68  56  65 VRB5      29.95R
HENDERSON NC   SUNNY     67  53  61 W6        30.11R
GREENSBORO     SUNNY     71  52  50 W9        30.14R
ROCKY MOUNT    SUNNY     69  56  62 W8        30.10S
$$

VAZ100-241500-
MARINE

STATION/POSITION TIME  TEMP    WIND        PRES    WAVE   SWELL
                       AIR SEA DIR/SP/G            HT/PER HT/PER
                 (UTC) (F)     (DEG/KT/KT) (MB)    (FT/S) (FT/S)
BRANDYWINE LGT   1300   60     320/  6/  8 1014.3R
CAPE MAY NJ      1300   63 62  320/  4/  8 1013.9R
LEWES DE         1300   62 59  310/ 11/ 12 1014.1R
15NM E FENWICK I 1350   58 55              1014.4R   3/ 8
OCEAN-CITY-INLET 1300   64 59  300/  8/ 10 1013.4R
WACHAPREAGUE VA  1300   68 63  260/  3/  7 1015.0R
THOMAS POINT MD  1400   67 61  300/ 10/ 10 1016.8R
GOOSES REEF MD   1400   65 61  310/ 10/ 12 1016.7R   2/ 3
COVE POINT MD    1300   65     310/ 12/ 19 1015.7R
SOLOMONS ISLAND  1300   67 62  290/  9/ 13   N/A
BISHOPS HEAD MD  1300   64 63  280/ 12/ 14 1015.3R
PINEY POINT MD   1300          320/  8/  9   N/A
POTOMAC MD       1400   64 62  300/ 10/ 16 1015.0R
CAMBRIDGE MD     1300   64 63  300/  9/ 14 1014.2R
LEWISETTA VA     1300   66 63  310/  9/ 11 1015.6R
RAPPAHANNOCK LGT 1300          250/  9/ 10 1016.4R
STINGRAY PT      1400   65 64  310/  8/ 10 1016.8R
YORK RVR RNG VA  1300   64     260/ 12/ 13 1015.6R
YORKTOWN VA      1300   64 64  250/  8/ 11 1016.0R
JAMESTOWN VA     1400   64 66  290/  6/  8   N/A     0
DOMINION TERM VA 1300   61     290/  8/  9 1017.0R
KIPTOPEKE VA     1300      63  260/ 13/ 15   N/A
CHES BAY BRIDGE  1300   61 63  230/ 11/ 12 1016.5R
CAPE HENRY VA    1300   63     230/  7/ 10   N/A
CHESAPEAKE LGHT  1300   61     250/ 14/ 14 1017.0R
WILLOUBY STN VA  1300   60     250/ 13/ 15 1017.6R
CAPE HENRY BUOY  1312      59                N/A     3/10   2/11
1ST LANDING BUOY 1400   63 63  250/  8/ 10 1016.7R   2/ 4
CAPE CHARLES BUO 1326      60                N/A     3/10   3/10
OFFSHORE WE BUOY 1321      57                N/A     4/10   3/10
64NM E OF VA BCH 1350   59 56  230/ 14/ 16 1016.4R   4/ 9   3/ 9
DUCK PIER NC     1300   64 61  260/ 10/ 14 1016.9R
44100 DUCK FRF   1324      58                N/A     4/10   2/11
44056 DUCK FRF   1311      62                N/A     3/10   2/11
OREGON INLET NC  1300   63 63  250/  8/ 11 1018.0R
HATTERAS NC      1300   65 66  280/ 14/ 17 1018.4R
DIAMOND SHLS NC  1350   65 68  280/ 12/ 16 1018.9R   4/ 9   3/C1F1C2F2C3F3C4F4C5F5C6F6C7F7C8M1C9!



USA.gov is the U.S. government's official web portal to all federal, state and local government web resources and services.